Park Rapids, MN

10:20 PM CST on January 22, 2018 (GMT -0600)
Park Rapids Municipal

Weather History for KPKD - March, 2012

Change the Weather History Date:

Wednesday, March 14, 2012

  Actual Average Record
Temperature  
Mean Temperature 47 °F -  
Max Temperature 59 °F 35 °F 63 °F (2015)
Min Temperature 35 °F 15 °F -18 °F (1960)
Degree Days  
Heating Degree Days 18    
Moisture  
Dew Point 30 °F    
Average Humidity 60    
Maximum Humidity 100    
Minimum Humidity 17    
Precipitation  
Precipitation 0.00 in - - ()
Sea Level Pressure  
Sea Level Pressure 29.80 in    
Wind  
Wind Speed 9 mph (NNW)    
Max Wind Speed 18 mph    
Max Gust Speed 30 mph    
Visibility 8 miles    
Events Fog    
Averages and records for this station are not official NWS values.
T = Trace of Precipitation, MM = Missing Value Source: NWS Daily Summary

Daily Weather History Graph

Daily Weather History Graph

Search for Another Location

Airport or City:

Trip Planner

Search our weather history database for the weather conditions in past years. The results will help you decide how hot, cold, wet, or windy it might be!

Date:

Astronomy

Mar. 14, 2012 Rise Set
Actual Time 7:34 AM CDT 7:25 PM CDT
Civil Twilight 7:03 AM CDT 7:55 PM CDT
Nautical Twilight 6:28 AM CDT 8:31 PM CDT
Astronomical Twilight 5:52 AM CDT 9:07 PM CDT
Moon 2:26 AM CDT (3/14) 11:20 AM CDT (3/14)
Length of Visible Light 12h 51m
Length of Day
11h 51m
Waning Gibbous, 54% of the Moon is Illuminated
Mar 14
Waning Gibbous
Mar 14
Last Quarter
Mar 22
New
Mar 30
First Quarter
Apr 6
Full

Hourly Weather History & Observations

Time (CDT) Temp. Windchill Dew Point Humidity Pressure Visibility Wind Dir Wind Speed Gust Speed Precip Events Conditions
12:53 AM 50.0 °F - 39.9 °F 68% 29.70 in 10.0 mi SSE 15.0 mph - N/A   Clear
1:53 AM 50.0 °F - 41.0 °F 71% 29.68 in 10.0 mi SSE 13.8 mph - N/A   Clear
2:53 AM 48.9 °F - 41.0 °F 74% 29.66 in 10.0 mi SSE 11.5 mph - N/A   Clear
3:53 AM 46.0 °F 41.9 °F 41.0 °F 83% 29.65 in 10.0 mi SSE 8.1 mph - N/A   Clear
4:53 AM 45.0 °F 41.8 °F 39.9 °F 82% 29.63 in 10.0 mi SE 5.8 mph - N/A   Clear
5:53 AM 43.0 °F 40.3 °F 39.9 °F 89% 29.64 in 10.0 mi SSE 4.6 mph - N/A   Clear
6:53 AM 42.1 °F - 39.0 °F 89% 29.68 in 9.0 mi Calm Calm - N/A   Clear
7:30 AM 39.2 °F - 37.4 °F 93% 29.68 in 1.8 mi Calm Calm - N/A   Clear
7:34 AM 39.2 °F - 37.4 °F 93% 29.68 in 0.2 mi Calm Calm - N/A Fog Fog
7:51 AM 35.6 °F - 35.6 °F 100% 29.68 in 0.2 mi Calm Calm - N/A Fog Fog
7:53 AM 36.0 °F - 35.1 °F 97% 29.71 in 0.2 mi Calm Calm - N/A Fog Fog
8:27 AM 41.0 °F 38.0 °F 39.2 °F 93% 29.71 in 1.5 mi West 4.6 mph - N/A   Partly Cloudy
8:29 AM 41.0 °F 38.0 °F 41.0 °F 100% 29.71 in 4.0 mi West 4.6 mph - N/A   Partly Cloudy
8:53 AM 44.1 °F 40.1 °F 41.0 °F 89% 29.75 in 10.0 mi NW 6.9 mph - N/A   Clear
9:53 AM 53.1 °F - 33.1 °F 47% 29.78 in 10.0 mi NNW 15.0 mph 24.2 mph N/A   Clear
10:53 AM 53.1 °F - 25.0 °F 34% 29.82 in 10.0 mi NNW 15.0 mph 25.3 mph N/A   Clear
11:53 AM 55.0 °F - 24.1 °F 30% 29.84 in 10.0 mi NNW 18.4 mph 29.9 mph N/A   Clear
12:53 PM 55.9 °F - 17.1 °F 22% 29.85 in 10.0 mi North 10.4 mph 19.6 mph N/A   Clear
1:53 PM 57.0 °F - 15.1 °F 19% 29.86 in 10.0 mi North 10.4 mph - N/A   Clear
2:53 PM 59.0 °F - 14.0 °F 17% 29.87 in 10.0 mi NNW 18.4 mph 23.0 mph N/A   Clear
3:53 PM 57.9 °F - 15.1 °F 19% 29.88 in 10.0 mi NW 12.7 mph - N/A   Clear
4:53 PM 57.0 °F - 14.0 °F 18% 29.91 in 10.0 mi NW 12.7 mph - N/A   Clear
5:53 PM 55.0 °F - 16.0 °F 22% 29.94 in 10.0 mi NNW 10.4 mph - N/A   Clear
6:53 PM 50.0 °F - 19.9 °F 31% 29.94 in 10.0 mi NNW 8.1 mph - N/A   Clear
7:53 PM 44.1 °F 40.1 °F 21.9 °F 42% 29.97 in 10.0 mi NNW 6.9 mph - N/A   Clear
8:53 PM 39.9 °F 35.8 °F 23.0 °F 51% 30.00 in 10.0 mi NNW 5.8 mph - N/A   Clear
9:53 PM 39.9 °F 36.7 °F 23.0 °F 51% 30.00 in 10.0 mi North 4.6 mph - N/A   Clear
10:53 PM 39.9 °F 34.5 °F 23.0 °F 51% 30.01 in 10.0 mi North 8.1 mph - N/A   Clear
11:53 PM 39.9 °F 36.7 °F 23.0 °F 51% 30.01 in 10.0 mi North 4.6 mph - N/A   Clear